Home > Weather > Ede > Past weeks

Flag for Netherlands Past Weather in Ede, Netherlands — Yesterday and Last 2 Weeks

Now
50 °F

Overcast.


Feels Like: 47 °F
Forecast: 48 / 62 °F
Wind: 8 mph from Northwest

Location: Deelen

Current Time: May 24, 2016 at 9:39:02 PM

Latest Report: May 24, 2016 at 8:55 PM


Visibility: N/A

Pressure: 30.01 "Hg

Humidity: 82%

Dew Point: 45 °F

Location of EdeLocation

Past Weather in Ede — Graph

°F

Ede Temperature Yesterday

Maximum temperature yesterday: 57 °F (at 12:25 AM)
Minimum temperature yesterday: 52 °F (at 5:25 PM)
Average temperature yesterday: 54 °F

High & Low Weather Summary for the Past Weeks

 TemperatureHumidityPressure
High79 °F (May 11, 3:25 PM)100% (May 16, 3:55 AM)30.12 "Hg (May 16, 3:55 AM)
Low34 °F (May 16, 3:55 AM)25% (May 13, 3:25 PM)29.50 "Hg (May 12, 5:25 PM)
Average57 °F72%29.86 "Hg
* Reported May 9 8:25 PM — May 24 8:25 PM, Ede, Weather by CustomWeather, © 2016

Note: Actual official high and low records may vary slightly from our data, if they occured in-between our weather recording intervals... More about our weather records

Advertising

Ede Weather History for the Previous 24 Hours

Scroll right to see more
 ConditionsComfort  
Time TempWeatherWind HumidityBarometerVisibility
8:25 PM
Tue, May 24
52 °FOvercast.7 mph77%30.01 "HgN/A
7:55 PM52 °FOvercast.9 mph77%30.01 "HgN/A
7:25 PM52 °FOvercast.9 mph77%30.01 "HgN/A
6:55 PM52 °FOvercast.10 mph77%30.01 "HgN/A
6:25 PM52 °FOvercast.12 mph77%30.01 "HgN/A
5:55 PM52 °FOvercast.10 mph77%30.01 "HgN/A
5:25 PM54 °FOvercast.12 mph72%30.01 "HgN/A
4:55 PM54 °FOvercast.12 mph72%30.01 "HgN/A
4:25 PM54 °FOvercast.13 mph67%30.01 "HgN/A
3:55 PM54 °FOvercast.13 mph72%30.04 "HgN/A
3:25 PM55 °FOvercast.14 mph67%30.01 "HgN/A
2:57 PM55 °FMostly cloudy.13 mph63%30.01 "HgN/A
2:25 PM55 °FMostly cloudy.13 mph67%30.01 "HgN/A
1:55 PM55 °FMore clouds than sun.15 mph67%30.04 "HgN/A
1:25 PM57 °FBroken clouds.14 mph67%30.04 "HgN/A
1:03 PM54 °FMostly cloudy.14 mph72%30.04 "HgN/A
12:55 PM55 °FCloudy.10 mph72%30.04 "HgN/A
12:25 PM54 °FOvercast.14 mph77%30.04 "HgN/A
11:56 AM54 °FMore clouds than sun.14 mph77%30.04 "HgN/A
11:25 AM54 °FMostly cloudy.14 mph72%30.04 "HgN/A
10:55 AM52 °FMore clouds than sun.17 mph77%30.04 "HgN/A
10:25 AM52 °FMore clouds than sun.14 mph77%30.04 "HgN/A
9:55 AM52 °FOvercast.13 mph77%30.04 "HgN/A
9:25 AM52 °FMostly cloudy.12 mph77%30.04 "HgN/A
8:55 AM52 °FMostly cloudy.10 mph77%30.04 "HgN/A
8:25 AM50 °FPartly sunny.10 mph88%30.04 "HgN/A
7:55 AM50 °FPartly sunny.8 mph88%30.04 "HgN/A
7:25 AM48 °FOvercast.6 mph94%30.04 "HgN/A
6:55 AM48 °FPartly sunny.6 mph94%30.04 "HgN/A
6:25 AM48 °FOvercast.7 mph94%30.04 "HgN/A
5:55 AM48 °FPartly cloudy.6 mph94%30.04 "HgN/A
5:25 AM48 °FPassing clouds.6 mph94%30.04 "HgN/A
4:55 AM48 °FOvercast.7 mph94%30.04 "HgN/A
4:25 AM48 °FOvercast.6 mph94%30.04 "HgN/A
3:55 AM50 °FMostly cloudy.6 mph88%30.04 "HgN/A
3:25 AM50 °FOvercast.7 mph94%30.04 "HgN/A
2:55 AM50 °FMostly cloudy.6 mph94%30.04 "HgN/A
2:25 AM50 °FMostly cloudy.6 mph94%30.04 "HgN/A
1:55 AM50 °FMostly cloudy.7 mph94%30.04 "HgN/A
1:25 AM50 °FMostly cloudy.6 mph94%30.04 "HgN/A
12:55 AM52 °FPartly cloudy.6 mph94%30.04 "HgN/A
12:25 AM52 °FPartly cloudy.6 mph94%30.01 "HgN/A
11:55 PM
Mon, May 23
52 °FMostly cloudy.8 mph94%30.01 "HgN/A
11:25 PM52 °FPartly cloudy.8 mph94%30.01 "HgN/A
10:55 PM52 °FPartly cloudy.8 mph94%30.01 "HgN/A
10:25 PM52 °FBroken clouds.7 mph94%30.01 "HgN/A
9:55 PM52 °FDrizzle. Partly sunny.8 mph94%30.01 "HgN/A
9:25 PM52 °FDrizzle. Broken clouds.8 mph94%29.98 "HgN/A
Weather by CustomWeather, © 2016

See weather overviewHow to use our weather pages